Location: Unspecified
(40.7945°N, 111.1337°W)
Time: 05:59:02
(UTC-06:00)

Okean 3 - Pass Details

Date: 27 March 2019
Orbit: 576 x 602 km, 82.5° (Epoch: 23 April)

Event Time Altitude Azimuth Distance (km) Brightness Sun altitude
Exits shadow 04:35:44 - 130° (SE) 2,002 6.3 -29.5°
Reaches altitude 10° 04:35:59 10° 128° (SE) 1,937 6.3 -29.4°
Maximum altitude 04:38:49 17° 86° (E) 1,514 6.1 -29.0°
Drops below altitude 10° 04:41:40 10° 45° (NE) 1,948 7.0 -28.5°
Sets 04:44:28 0° 26° (NNE) 2,856 7.8 -28.1°
